Home > Weather > Rome > Past weeks

Flag for Italy Weather for the Past 2 Weeks in Rome, Italy

Now
48 °F

Clear.


Feels Like: 47 °F
Forecast: 50 / 72 °F
Wind: 3 mph from Northeast

Location: Rome / Ciampino

Current Time: May 6, 2016 at 6:09:39 AM

Latest Report: May 6, 2016 at 5:20 AM


Visibility: 10 mi

Pressure: 30.04 "Hg

Humidity: 82%

Dew Point: 43 °F

Location of RomeLocation

Historic Weather in Rome — Graph

°F

Rome Temperature Yesterday

Maximum temperature yesterday: 70 °F (at 1:20 PM)
Minimum temperature yesterday: 48 °F (at 6:20 AM)
Average temperature yesterday: 58 °F

High & Low Weather Summary for the Past Weeks

 TemperatureHumidityPressure
High73 °F (May 4, 2:20 PM)100% (Apr 25, 6:50 AM)30.24 "Hg (Apr 25, 6:50 AM)
Low43 °F (Apr 26, 12:20 AM)29% (May 4, 4:20 PM)29.50 "Hg (Apr 25, 5:50 AM)
Average59 °F70%29.89 "Hg
* Reported Apr 21 4:20 AM — May 6 4:50 AM, Rome, Weather by CustomWeather, © 2016

Note: Actual official high and low records may vary slightly from our data, if they occured in-between our weather recording intervals... More about our weather records

Advertising

Rome Weather History for the Previous 24 Hours

Scroll right to see more
 ConditionsComfort  
Time TempWeatherWind HumidityBarometerVisibility
4:50 AM
Fri, May 6
50 °FClear.3 mph76%30.04 "Hg10 mi
4:20 AM50 °FPassing clouds.5 mph76%30.04 "HgN/A
3:50 AM52 °FPassing clouds.5 mph72%30.07 "HgN/A
3:20 AM50 °FClear.6 mph82%30.07 "Hg10 mi
2:50 AM50 °FPassing clouds.5 mph82%30.07 "HgN/A
2:20 AM50 °FClear.5 mph76%30.07 "Hg10 mi
1:50 AM50 °FPassing clouds.3 mph76%30.07 "HgN/A
1:20 AM52 °FPassing clouds.6 mph77%30.07 "HgN/A
12:50 AM54 °FClear.5 mph72%30.07 "Hg10 mi
12:20 AM54 °FPassing clouds.3 mph72%30.07 "HgN/A
11:50 PM
Thu, May 5
54 °FPassing clouds.3 mph77%30.07 "HgN/A
11:20 PM54 °FClear.1 mph77%30.07 "Hg10 mi
10:50 PM54 °FClear.6 mph77%30.07 "Hg10 mi
10:20 PM55 °FPassing clouds.3 mph72%30.07 "HgN/A
9:50 PM55 °FClear.6 mph72%30.04 "Hg10 mi
9:20 PM57 °FPassing clouds.5 mph67%30.07 "HgN/A
8:50 PM59 °FScattered showers. Passing clouds.9 mph63%30.04 "HgN/A
8:20 PM61 °FLight rain. Scattered clouds.3 mph63%30.04 "HgN/A
7:50 PM61 °FScattered showers. Scattered clouds.5 mph63%30.04 "HgN/A
7:20 PM61 °FScattered showers. Scattered clouds.10 mph68%30.04 "HgN/A
6:50 PM64 °FScattered clouds.3 mph60%30.01 "HgN/A
6:20 PM63 °FScattered showers. Passing clouds.3 mph68%30.04 "HgN/A
5:50 PM61 °FScattered clouds.8 mph72%30.04 "HgN/A
5:20 PM57 °FLight rain. Scattered clouds.8 mph82%30.04 "HgN/A
4:50 PM57 °FThunderstorms. Partly sunny.8 mph82%30.04 "HgN/A
4:20 PM57 °FRain. Scattered clouds.9 mph82%30.04 "HgN/A
3:50 PM63 °FLight rain. Scattered clouds.5 mph56%30.04 "HgN/A
3:20 PM68 °FScattered showers. Scattered clouds.9 mph53%30.04 "HgN/A
2:50 PM68 °FScattered clouds.9 mph53%30.04 "HgN/A
2:20 PM68 °FScattered clouds.9 mph53%30.04 "HgN/A
1:50 PM68 °FScattered clouds.9 mph56%30.04 "HgN/A
1:20 PM70 °FScattered clouds.8 mph53%30.04 "HgN/A
12:50 PM68 °FScattered clouds.6 mph53%30.04 "HgN/A
12:20 PM68 °FPassing clouds.5 mph49%30.04 "HgN/A
11:50 AM68 °FPassing clouds.6 mph46%30.04 "HgN/A
11:20 AM64 °FPassing clouds.6 mph46%30.07 "HgN/A
10:50 AM64 °FPassing clouds.6 mph46%30.07 "HgN/A
10:20 AM63 °FPassing clouds.3 mph49%30.04 "HgN/A
9:50 AM61 °FPassing clouds.5 mph52%30.04 "HgN/A
9:20 AM59 °FSunny.8 mph55%30.04 "Hg10 mi
8:20 AM55 °FSunny.6 mph63%30.04 "Hg10 mi
7:50 AM55 °FPassing clouds.7 mph63%30.04 "HgN/A
7:20 AM54 °FSunny.6 mph63%30.04 "Hg10 mi
6:50 AM50 °FClear.7 mph71%30.04 "Hg10 mi
6:20 AM48 °FClear.7 mph76%30.04 "Hg10 mi
Weather by CustomWeather, © 2016

See weather overviewHow to use our weather pages